www.pogodaiklimat.ru

Погода и климат >> Архив погоды >> Кипр >> Кириния


ПОГОДА в Киринии

  • Прогноз погоды в Киринии
  • Монитор погоды в Киринии

АРХИВ ПОГОДЫ в Киринии

Время (UTC), дата Ветер
(напр.,м/с)
 
Видим.   Явления Облачность Т
(С)
Тd
(С)
f
(%)
Тe
(С)
Тes
(С)
Комфортность P
(гПа)
Po
(гПа)
Тmin
(С)
Tmax
(С)
R
(мм)
R24
(мм)
S
(см)
15 13.08 СЗ 5 10 км ясно +31.5 +21.7 56 +40 +41 очень
душно
1006.3 1005.3
18 13.08 З 4 10 км ясно +28.8 +21.2 64 +36 +36 очень
душно
1006.1 1005.1 +34.6
21 13.08 штиль 0 10 км ясно +27.4 +20.1 64 +34 +34 очень
душно
1006.5 1005.5
03 14.08 штиль 0 10 км ясно +25.7 +17.6 61 +30 +30 душно 1005.9 1004.9
06 14.08 штиль 0 10 км ясно +29.2 +21.8 64 +37 +47 очень
душно
1007.5 1006.5 +25.2
09 14.08 СЗ 3 10 км ясно +30.9 +22.3 60 +40 +55 опасность
солнечного
удара
1008.0 1007.0
12 14.08 З 6 10 км 1/1 900 м
[Cu hum]
+31.4 +22.7 60 +41 +47 опасность
перегрева
1007.0 1006.0
15 14.08 З 6 10 км 1/1 900 м
[Cu hum]
+30.0 +22.6 65 +40 +40 очень
душно
1007.6 1006.6
18 14.08 СЗ 4 10 км 1/1 750 м
[Cu hum]
+28.5 +22.3 69 +37 +37 очень
душно
1007.6 1006.6 +32.0
21 14.08 СЗ 2 10 км 4/4 900 м
[Cu hum]
+27.6 +21.5 69 +35 +35 очень
душно
1008.0 1007.0
00 15.08 штиль 0 10 км ясно +26.8 +21.0 71 +34 +34 очень
душно
1007.1 1006.1
03 15.08 штиль 0 10 км ясно +26.3 +20.2 69 +32 +32 очень
душно
1007.0 1006.0
06 15.08 З 5 10 км ясно +29.0 +21.4 64 +37 +40 очень
душно
1008.5 1007.5 +26.5
09 15.08 СЗ 7 10 км ясно +30.5 +21.9 60 +39 +44 очень
душно
1009.0 1008.0
12 15.08 СЗ 6 10 км 1/1 900 м
[Cu hum]
+31.2 +20.8 54 +38 +43 очень
душно
1008.5 1007.5
15 15.08 СЗ 7 10 км 1/1 900 м
[Cu hum]
+30.0 +20.6 57 +37 +37 очень
душно
1008.5 1007.5
18 15.08 СЗ 5 10 км 1/1 900 м
[Cu hum]
+28.0 +20.6 64 +35 +35 очень
душно
1008.0 1007.0 +32.0
21 15.08 штиль 0 10 км 1/1 900 м
[Cu hum]
+26.5 +18.8 63 +32 +32 очень
душно
1009.0 1008.0
00 16.08 штиль 0 10 км 1/1 900 м
[Cu hum]
+25.5 +13.8 48 +28 +28 жарко 1009.0 1008.0
03 16.08 штиль 0 10 км 1/1 900 м
[Cu hum]
+25.0 +13.8 50 +27 +27 жарко 1009.0 1008.0
06 16.08 З 5 10 км ясно +28.8 +19.6 58 +35 +39 очень
душно
1009.2 1008.2 +25.0
09 16.08 СЗ 7 10 км 1/1 900 м
[Cu hum]
+30.5 +21.4 58 +38 +44 очень
душно
1009.4 1008.4
12 16.08 СЗ 8 10 км 1/1 900 м
[Cu hum]
+31.0 +21.8 58 +39 +42 очень
душно
1008.9 1007.9
15 16.08 З 8 10 км 1/1 900 м
[Cu hum]
+29.8 +22.5 65 +39 +39 очень
душно
1009.0 1008.0
18 16.08 З 4 10 км 1/1 900 м
[Cu hum]
+28.0 +21.9 69 +36 +36 очень
душно
1008.0 1007.0 +31.5
21 16.08 З 4 10 км ясно +27.6 +20.9 67 +35 +35 очень
душно
1008.0 1007.0
00 17.08 ЮЗ 4 10 км ясно +27.5 +21.1 68 +35 +35 очень
душно
1007.2 1006.2
06 17.08 З 4 10 км 3/3 900 м
[Cu hum]
+29.0 +21.9 66 +37 +41 очень
душно
1008.5 1007.5 +25.8
09 17.08 СЗ 6 10 км 3/3 900 м
[Cu hum]
+31.2 +22.4 60 +41 +45 опасность
перегрева
1008.9 1007.9
12 17.08 СЗ 7 10 км 3/3 900 м
[Cu hum]
+31.6 +23.4 62 +42 +45 опасность
перегрева
1008.2 1007.2
15 17.08 СЗ 5 10 км 3/3 900 м
[Cu hum]
+30.4 +23.0 65 +41 +41 опасность
перегрева
1006.9 1005.9
18 17.08 З 3 10 км 3/3 900 м
[Cu hum]
+28.3 +21.8 68 +36 +36 очень
душно
1006.5 1005.5 +31.9
21 17.08 З 2 10 км 3/3 900 м
[Cu hum]
+27.4 +21.2 69 +35 +35 очень
душно
1006.2 1005.2
00 18.08 штиль 0 10 км 3/3 900 м
[Cu hum]
+26.3 +19.5 66 +32 +32 очень
душно
1005.5 1004.5
03 18.08 Ю 3 10 км 1/1 900 м
[Cu hum]
+25.8 +18.1 62 +30 +30 душно 1005.1 1004.1
06 18.08 В 2 10 км 1/1 900 м
[Cu hum]
+29.1 +19.7 57 +35 +41 очень
душно
1006.0 1005.0 +25.0
09 18.08 СВ 3 10 км 3/3 900 м
[Cu hum]
+30.9 +18.6 48 +36 +47 очень
душно
1007.0 1006.0
12 18.08 СВ 2 10 км 4/4 750 м
[Cu med, cong]
+30.8 +19.7 52 +37 +45 очень
душно
1006.5 1005.5
15 18.08 штиль 0 10 км 3/3 900 м
[Cu hum]
+31.6 +20.5 52 +39 +40 очень
душно
1006.5 1005.5
18 18.08 СЗ 2 10 км 3/3 750 м
[Cu hum]
+28.7 +21.0 63 +36 +36 очень
душно
1007.0 1006.0 +32.5
21 18.08 штиль 0 10 км 3/3 900 м
[Cu hum]
+27.2 +20.6 67 +34 +34 очень
душно
1007.1 1006.1
00 19.08 штиль 0 10 км ясно +26.5 +20.2 68 +33 +33 очень
душно
1007.0 1006.0
03 19.08 штиль 0 10 км ясно +27.3 +17.5 55 +31 +31 душно 1006.8 1005.8
06 19.08 штиль 0 10 км 1/1 750 м
[Cu hum]
+30.5 +19.0 50 +36 +44 очень
душно
1008.6 1007.6 +25.5
09 19.08 В 3 10 км 5/5 750 м
[Cu hum]
+30.7 +20.6 55 +38 +45 очень
душно
1008.9 1007.9
12 19.08 В 3 9000 м гроза, ливневой дождь 8/8 750 м
[Cb cap]
+30.0 +20.0 55 +36 +39 очень
душно
1008.9 1007.9
15 19.08 В 3 10 км {гроза} 1/1 750 м
[Cu hum]
+29.5 +19.2 54 +35 +36 очень
душно
1008.9 1007.9
18 19.08 С 2 10 км гроза без осадков 4/4 750 м
[Cb cap]
+28.5 +21.9 67 +37 +37 очень
душно
1009.8 1008.8 +32.3 0.4
00 20.08 штиль 0 10 км 1/1 900 м
[Cu hum]
+26.0 +20.9 74 +33 +33 очень
душно
1008.7 1007.7
03 20.08 штиль 0 10 км 1/1 900 м
[Cu hum]
+25.5 +19.8 71 +31 +31 очень
душно
1009.0 1008.0
06 20.08 штиль 0 10 км 1/1 750 м
[Cu hum]
+28.9 +20.7 61 +36 +44 очень
душно
1010.1 1009.1 +25.4
09 20.08 штиль 0 10 км 3/3 900 м
[Cu hum]
+31.1 +20.3 53 +38 +55 опасность
солнечного
удара
1011.9 1010.9

 

Местоположение метеостанции Кириния (Кипр): широта 35.35 долгота 33.32 высота над уровнем моря 41 м.

В архиве по умолчанию представлена погода в Киринии за последнюю неделю. Архивные данные за месяц целиком и за предыдущие месяцы, начиная с января 2011 года, Вы можете получить, выбрав интересующий диапазон дат из раскрывающегося списка и нажав кнопку "Ввод!".


*Определитесь, кто Вы:
робот инопланетянин человек

Внимание! Время в таблицах - всемирное. Для получения местного времени необходимо прибавить поправку, которая равна 2 ч.

Смотрите также архив погоды в соседних городах и на ближайших метеорологических станциях:

Погода в Аталассе (Кипр) (23 км)
Погода в Никосии (Кипр) (28 км)
Погода в Акденизе (Кипр) (32 км)
Погода в Лефконико (Кипр) (39 км)
Погода на Базе ВВС Gecitkale (Кипр) (40 км)
Погода в Искеле (Кипр) (51 км)
Погода в Ларнаке (Кипр) (59 км)
Погода в Фамагусте (Кипр) (62 км)
Погода в Гиалусе (Кипр) (67 км)
Погода в Лефке (Кипр) (69 км)

Пояснения к столбцам:

Ветер - указаны скорость ветра в м/с - средняя за 10 мин, порывы в срок и между сроками (в фигурных скобках) и направление, откуда дует ветер: С - северный, СВ - северо-восточный, В - восточный, ЮВ - юго-восточный, Ю - южный, ЮЗ - юго-западный, З - западный, СЗ - северо-западный.
Видимость - горизонтальная дальность видимости в метрах или километрах. При видимости от 1 до 10 км при отсутствии осадков обычно наблюдается дымка, при ухудшении видимости до 1 км и менее - туман. В сухую погоду видимость может ухудшаться дымом, пылью или мглою.
Явления - указаны атмосферные явления, наблюдавшиеся в срок или в последний час перед сроком; фигурными скобками обозначены явления, наблюдавшиеся между сроками (за 1-3 часа до срока); квадратными скобками обозначены град или гололедные отложения с указанием их диаметра в мм.
Облачность - указаны через наклонную черту общая и нижняя облачность в баллах и высота нижней границы облаков в метрах; квадратными скобками обозначены формы облаков: Ci - перистые, Cs - перисто-слоистые, Cc - перисто-кучевые, Ac - высококучевые, As - высокослоистые, Sc - слоисто-кучевые, Ns - слоисто-дождевые, Cu - кучевые, Cb - кучево-дождевые. Подробнее классификацию облаков см. в Атласе облаков (PDF).
T - Температура воздуха - температура, измеренная на высоте 2 м над землей.
Td - Температура точки росы - температура, при понижении до которой содержащийся в воздухе водяной пар достигнет насыщения.
f - Относительная влажность воздуха - влажноcть воздуха, измеренная на высоте 2 м над землей.
Te - Эффективная температура - температура, которую ощущает одетый по сезону человек в тени. Характеристика душности погоды. При расчете учитывается влияние влажности воздуха и скорости ветра на теплоощущения человека.
Tes - Эффективная температура на солнце - температура, которую ощущает человек, с поправкой на солнечный нагрев. Характеристика знойности погоды. Зависит от высоты солнца над горизонтом, облачности и скорости ветра. Ночью, в пасмурную погоду, а также при ветре 12 м/с и более поправка равна нулю.
P - Атмосферное давление - приведенное к уровню моря атмосферное давление.
Po - Атмосферное давление - измеренное на уровне метеостанции атмосферное давление.
Tmin - Минимальная температура - минимум температуры воздуха на высоте 2 м над землей.
Tmax - Максимальная температура - максимум температуры воздуха на высоте 2 м над землей.
R - Количество осадков - Количество выпавших осадков за период времени, мм. При наведении курсора мыши на число - период времени, за который выпало указанное количество осадков.
R24 - Количество осадков - Количество выпавших осадков за 24 часа, мм.
S - Снежный покров - Высота снежного покрова, см. При наведении курсора мыши на число - состояние снежного покрова и степень покрытия местности в баллах.